User: anonymous   Login
Location: Camp Creek
(33.9000°N, 111.8167°W)
Time: 14:54:55
(UTC-07:00)
Language:

DELTA 2 R/B (1) - Orbit

View from above orbital plane
View from above orbital plane
View from above satellite
View from above satellite

Ground track
Ground track

The orbit data is extracted from the following two-line orbital elements,

1 27665U 03005C   15187.36426359  .00000026  00000-0  44110-4 0  9996
2 27665 039.5751 134.4949 0008735 316.7663 195.0374 14.28347162649126
Epoch (UTC): 06 July 2015 08:44:32
Eccentricity: 0.0008735
inclination: 39.5751°
perigee height: 791 km
apogee height: 803 km
right ascension of ascending node: 134.4949°
argument of perigee: 316.7663°
revolutions per day: 14.28347162
mean anomaly at epoch: 195.0374°
orbit number at epoch: 64912

The dashed part of the orbit path shows where the satellite is in the earth's shadow,  

DLR